FENGYUN 1C DEB

Satellite information

Favourite Embed

Satellite Type and Status

DEBRISIN ORBIT

Key statistics

Satellite FENGYUN 1C DEB at a glance.

Uptime

9493

Days in orbit

Revolutions

≈ 14.3

Per day

Orbit

SSO

Sun Synchronous Orbit

Inclination

99.2

Latest

Satellite identification and parameters

Extended collection of information and parameters for FENGYUN 1C DEB.

Object identification

Identified? True

Debris? True

Object name: FENGYUN 1C DEB

International designator: 1999-025AYM

Object number (NORAD): 30899

Object ID (CCSDS): 30899

Country: PEOPLES REPUBLIC OF CHINA (PRC)

Current information (Y/N): Y

RCS size: SMALL

Orbital parameters

Period: 100.637 minutes

Inclination: 99.1929 deg

SMA: 7166.898 km

Apoapsis: 810.496 km

Periapsis: 767.029 km

RAAN: 10.1673 deg

Eccentricy: 0.0030325

Argument of periapsis: 205.4946 deg

Mean anomaly: 280.1248 deg

Mean motion: 14.30889067 rev/day

Mean motion (dot): 0.0000623 rev/day2

B* drag term: 0.0023777 1/REarth

Two-line elements (TLE)

Creation date: May 6, 2025, 3:54 a.m.

Reference frame: TEME

Reference center: EARTH

Epoch: May 5, 2025, 11:25 a.m. UTC

TLE line 0: 0 FENGYUN 1C DEB

TLE line 1: 1 30899U 99025AYM 25125.47604344 .00006230 00000-0 23777-2 0 9990

TLE line 2: 2 30899 99.1929 10.1673 0030325 205.4946 280.1248 14.30889067934884

Live tracking on map

Real-time ground track for satellite FENGYUN 1C DEB.

In-orbit conjunctions

A list of the most updated potential collisions computed for object FENGYUN 1C DEB.

Target Orbit TCA Probability of collision Miss distance Type
IRIDIUM 28 LEO 2025-04-20 01:01:10 0.0002838781 910.0 (m) PAYLOAD
FENGYUN 1C DEB SSO 2024-11-15 00:32:42 0.001704213 12.0 (m) DEBRIS
CZ-4 DEB SSO 2024-11-10 06:37:40 0.0007560136 319.0 (m) DEBRIS
ARGOS SSO 2024-07-30 22:12:38 0.0001023286 772.0 (m) PAYLOAD

Associated space launch

Chinese polar orbiting meteorological satellite

FENGYUN 1C DEB was lifted into orbit during the mission ‘Long March 4B | Feng Yun 1C’, on board a Long March 4B space rocket.

The launch took place on May 10, 1999, 1:33 a.m. from Launch Complex 7.

For more information about the launch, click the button.

Launch to space Long March 4B | Feng Yun 1C
Long March 4B | Feng Yun 1C

Agency: N/A

Status: Launch Successful

Launch date: May 10, 1999, 1:33 a.m. UTC

Rocket: Long March 4B

Launch pad: Launch Complex 7

Location: Taiyuan Satellite Launch Center, People's Republic of China

...

Latest news about this satellite

There are no fresh news available about this satellite. Check back as we update our databases every day.


Newsletter sign-up

Weekly statistics, charts and insights to help you stay on top of the space industry.